Regional Weather Roundup
Issued by NWS

Home | Current Version | Previous Version | Graphics & Text | Print | Product List | Glossary On
Versions: 1 2 3 4 5 6 7 8 9 10 11 12 13 14 15 16 17 18 19 20 21 22 23 24 25 26 27 28 29 30 31 32 33 34 35 36 37 38 39 40 41 42 43 44 45 46 47 48 49 50
000
ASUS43 KIND 221559
RWRIN

WEATHER ROUNDUP FOR INDIANA
NATIONAL WEATHER SERVICE INDIANAPOLIS IN
1200 PM EDT FRI JUL 22 2016

NOTE: "FAIR" INDICATES FEW OR NO CLOUDS BELOW 12,000 FEET WITH NO
SIGNIFICANT WEATHER AND/OR OBSTRUCTIONS TO VISIBILITY.

* - STATION DOES NOT REPORT WEATHER SUCH AS PRECIPITATION OR FOG.

+ - STATION NOT QUALITY CONTROLLED BY THE NATIONAL WEATHER SERVICE.
    USE DATA WITH CAUTION...ESPECIALLY DEWPOINT AND RELATIVE
    HUMIDITY OBSERVATIONS.

INZ001>003-010>013-019-020-221700-
NORTHWEST INDIANA

CITY           SKY/WX    TMP DP  RH WIND       PRES   REMARKS
KNOX *+        CLOUDY    81  59  47 NW8       30.04R
MONTICELLO +   CLOUDY    81  68  63 W5        30.04R

$$

LMZ046-743>745-221700-
SOUTHERN LAKE MICHIGAN

STATION/POSITION TIME  TEMP    WIND        PRES    WAVE
                       AIR SEA DIR/SP/G            HT
                 (UTC) (F)     (DEG/KT/KT) (MB)    (FT)
BURNS HARBOR     1505   75     260/  5/  7 1017.6S
MICHIGAN CITY    1500   75     220/  7/  8   N/A
5NW MICH CITY    1500   76 74  230/  4/  6   N/A     1

$$

INZ004-005-014>016-021>024-221700-
NORTH CENTRAL INDIANA

CITY           SKY/WX    TMP DP  RH WIND       PRES   REMARKS
ELKHART        CLOUDY    82  73  74 NW6       30.04R
GOSHEN         MOSUNNY   84  68  58 NW8       30.03R
SOUTH BEND     MOSUNNY   82  71  69 NW14      30.04R

$$

INZ006>009-017-018-025>027-221700-
NORTHEAST INDIANA

CITY           SKY/WX    TMP DP  RH WIND       PRES   REMARKS
ANGOLA *+      SUNNY     84  81  89 VRB3      30.03R HX  98
FORT WAYNE     PTSUNNY   85  72  65 NW7       30.02R

$$

INZ028-029-035-036-043>045-051>053-221700-
WEST CENTRAL INDIANA

CITY           SKY/WX    TMP DP  RH WIND       PRES   REMARKS
CRAWFORDSVL +  PTSUNNY   78  74  89 W5        30.06R
LAFAYETTE      CLOUDY    81  73  76 W5        30.04S
TERRE HAUTE    CLOUDY    79  72  79 S7        30.06R

$$

INZ030>032-037>040-046>048-054>057-064-065-221700-
CENTRAL INDIANA

CITY           SKY/WX    TMP DP  RH WIND       PRES   REMARKS
COLUMBUS       MOSUNNY   77  75  94 CALM      30.05S
INDIANAPOLIS   PTSUNNY   83  73  72 W12       30.04S
-EAGLE CREEK   MOSUNNY   85  73  67 W8        30.03R
KOKOMO *+      PTSUNNY   84  70  61 W12       30.03S
SHELBYVILLE    CLOUDY    82  73  74 W7        30.04F

$$

INZ033-034-041-042-049-050-058-059-221700-
EAST CENTRAL INDIANA

CITY           SKY/WX    TMP DP  RH WIND       PRES   REMARKS
MUNCIE         PTSUNNY   84  73  69 SW10      30.04S

$$

INZ060-061-067>069-081>083-085>088-221700-
SOUTHWEST INDIANA

CITY           SKY/WX    TMP DP  RH WIND       PRES   REMARKS
EVANSVILLE     CLOUDY    76  73  91 SW9       30.05F
HUNTINGBURG *+ CLOUDY    75  72  88 SW7       30.06R

$$

INZ062-063-066-070>080-084-089>092-221700-
SOUTH CENTRAL AND SOUTHEAST INDIANA

CITY           SKY/WX    TMP DP  RH WIND       PRES   REMARKS
BLOOMINGTON    CLOUDY    78  72  81 VRB3      30.07R
MADISON *+     CLOUDY    82  70  65 W3        30.09R
SEYMOUR +      CLOUDY    82  72  69 CALM      30.06

$$





USA.gov is the U.S. government's official web portal to all federal, state and local government web resources and services.